This demonstration page uses our WeatherBlox Daily Observations layout. Learn more.

Left ArrowRight Arrow

Hourly Observations for September 21, 2019

Temp ( °F °C ) Dew Point ( °F °C ) Humidity (%) Winds ( mph kmh ) Pressure ( in mb ) Visibility ( mi km ) Precip ( " mm )
12:51 am 00:51 Mostly Clear 74 23.3 37 2.8 26 26 NNW 7 11 29.76 1008 10 16 0.00 0.00
1:51 am 01:51 Mostly Clear 74 23.3 37 2.8 26 26 NW 9 15 29.77 1008 10 16 0.00 0.00
2:51 am 02:51 Mostly Cloudy 72 22.2 37 2.8 28 28 NW 7 11 29.78 1008 10 16 0.00 0.00
3:51 am 03:51 Mostly Clear 69 20.6 39 3.9 33 33 SW 3 6 29.79 1009 10 16 0.00 0.00
4:51 am 04:51 Clear 66 18.9 39 3.9 37 37 SE 5 7 29.81 1010 10 16 0.00 0.00
5:51 am 05:51 Clear 64 17.8 40 4.4 41 41 SE 6 9 29.83 1010 10 16 0.00 0.00
6:51 am 06:51 Sunny 66 18.9 41 5 40 40 E 3 6 29.84 1011 10 16 0.00 0.00
7:51 am 07:51 Sunny 73 22.8 40 4.4 30 30 SW 3 6 29.85 1011 10 16 0.00 0.00
8:51 am 08:51 Sunny 78 25.6 38 3.3 24 24 Calm 29.86 1011 10 16 0.00 0.00
9:51 am 09:51 Sunny 83 28.3 41 5 23 23 NW 5 7 29.85 1011 10 16 0.00 0.00
10:51 am 10:51 Sunny 85 29.4 46 7.8 26 26 VRB 3 6 29.84 1010 10 16 0.00 0.00
11:51 am 11:51 Sunny 85 29.4 46 7.8 26 26 ESE 5 7 29.82 1010 10 16 0.00 0.00
12:51 pm 12:51 Mostly Sunny 88 31.1 46 7.8 23 23 VRB 3 6 29.79 1009 10 16 0.00 0.00
1:51 pm 13:51 Sunny 89 31.7 45 7.2 22 22 WSW 7 11 29.75 1008 10 16 0.00 0.00
2:51 pm 14:51 Sunny 91 32.8 45 7.2 20 20 NW 12 19 29.72 1007 10 16 0.00 0.00
3:51 pm 15:51 Sunny 91 32.8 45 7.2 20 20 WNW 10 17 29.72 1007 10 16 0.00 0.00
4:51 pm 16:51 Sunny 90 32.2 42 5.6 19 19 NNW 7 11 29.73 1007 10 16 0.00 0.00
5:51 pm 17:51 Sunny 88 31.1 38 3.3 17 17 NW 14 22 29.74 1007 10 16 0.00 0.00
6:51 pm 18:51 Clear 84 28.9 37 2.8 19 19 NW 12 19 29.75 1007 10 16 0.00 0.00
7:51 pm 19:51 Clear 82 27.8 35 1.7 18 18 NW 13 20 29.76 1008 10 16 0.00 0.00
8:51 pm 20:51 Clear 80 26.7 33 0.6 18 18 NW 9 15 29.78 1009 10 16 0.00 0.00
9:51 pm 21:51 Clear 75 23.9 34 1.1 22 22 WNW 9 15 29.81 1009 10 16 0.00 0.00
10:51 pm 22:51 Clear 75 23.9 34 1.1 22 22 WNW 9 15 29.82 1010 10 16 0.00 0.00
11:51 pm 23:51 Clear 73 22.8 34 1.1 24 24 Calm 29.83 1010 10 16 0.00 0.00

Powered by AerisWeather